Dewpoint
47 47 47 47 48 49 51 50 49 47 46 46 46 48 49 50 50 51 52 53 54 56 57 56 56 55 49 36 33 49 51 45 38 32 31 19 17 18 20 19 15 13 15 18 18 21 26
44 45 46 47 47 47 47 48 51 48 46 47 46 46 47 49 50 51 51 51 52 55 56 56 56 54 47 35 32 48 43 37 28 27 26 19 21 24 23 22 18 21 21 19 18 19 28
45 45 45 46 47 48 47 48 48 50 49 47 47 45 46 47 49 50 50 51 52 53 55 56 55 51 44 40 31 29 38 33 28 25 25 25 25 25 24 24 20 19 19 17 19 21 28
44 45 46 46 46 47 48 48 48 49 49 50 48 47 46 45 46 49 50 51 52 53 55 56 54 48 41 37 35 34 33 34 28 26 27 26 26 25 25 26 23 19 16 15 23 26 35
44 45 44 46 47 46 47 47 47 47 48 49 49 48 47 46 45 47 50 50 49 52 55 54 49 47 34 33 33 28 30 33 28 27 27 27 25 23 22 21 17 16 13 17 23 27 35
43 44 45 46 46 47 47 47 47 48 48 49 49 49 47 46 46 45 49 47 46 53 52 49 46 37 36 26 27 28 28 33 25 25 26 26 22 21 20 20 15 14 18 18 24 25 26
44 45 45 46 46 47 45 45 46 47 47 47 49 48 49 46 46 46 46 43 40 48 48 38 34 26 19 31 24 22 23 32 27 25 23 23 21 18 18 18 15 13 19 21 22 26 25
47 46 45 46 47 47 46 46 46 47 47 47 48 48 48 48 47 47 45 42 33 41 36 31 35 33 33 32 25 25 23 31 27 24 24 22 22 22 21 20 15 13 13 16 19 24 21
47 47 46 46 46 47 47 47 47 47 47 46 47 48 47 48 47 45 42 39 41 42 35 22 19 21 21 26 28 25 20 31 27 25 24 23 24 25 21 18 15 13 13 12 17 23 21
47 47 47 46 47 47 47 47 47 48 47 47 47 48 46 48 43 39 36 36 39 41 30 9 11 25 22 24 22 26 22 25 26 24 23 22 23 22 20 17 14 13 13 18 20 18 13
47 47 47 48 48 48 48 48 48 48 47 47 47 48 46 47 42 40 46 49 45 46 9 -1 4 25 27 24 22 24 24 24 23 22 22 21 22 20 20 15 14 14 21 20 19 16 17
46 47 47 48 48 48 48 48 48 47 48 47 47 48 46 44 45 43 44 48 46 30 10 2 26 25 24 26 23 21 21 23 24 21 21 20 21 20 21 17 17 17 21 22 21 17 17
46 47 47 48 48 48 48 48 48 48 48 47 47 47 46 38 41 42 47 47 32 16 3 -0 21 27 24 24 23 23 19 19 20 20 20 19 18 21 20 16 17 18 18 17 15 15 19
46 46 46 47 48 48 48 48 48 48 48 47 47 46 44 39 42 44 45 39 15 7 12 6 7 19 25 25 25 23 20 18 22 20 20 18 16 19 18 17 16 19 18 19 16 21 24
45 45 46 46 47 48 48 48 48 48 48 47 47 45 42 42 42 45 40 29 20 6 3 10 10 17 19 25 23 23 18 20 21 21 19 18 16 18 19 18 19 19 18 19 18 28 29
45 45 46 46 47 47 48 48 48 48 48 48 45 43 41 42 43 43 35 29 27 14 7 7 6 8 13 23 22 21 18 19 20 22 22 19 17 19 18 19 20 18 19 22 21 17 21
44 45 45 46 46 47 47 48 48 48 48 48 44 38 40 41 44 39 29 28 25 23 17 11 13 13 10 11 20 21 20 20 22 20 20 20 20 19 20 18 17 18 19 23 26 21 23
44 44 44 45 46 46 47 47 47 48 48 47 41 32 40 42 34 34 31 26 26 22 20 18 14 13 10 13 19 24 20 19 20 21 18 20 20 19 19 19 20 19 19 19 21 21 23
43 44 44 45 45 46 46 46 47 48 48 45 37 37 39 41 28 30 31 31 24 23 21 19 17 15 14 23 32 33 30 26 22 22 19 21 18 19 20 20 22 19 18 23 24 25 25
43 44 44 45 46 46 46 47 47 47 49 46 38 31 37 39 33 29 30 29 25 23 22 19 15 15 16 22 31 35 35 27 27 22 24 27 20 19 21 19 22 20 18 18 25 26 26
44 44 45 44 44 44 44 45 47 47 49 45 37 32 36 30 32 29 28 24 24 21 21 22 18 18 16 19 27 32 35 36 34 31 23 26 22 21 21 19 19 18 18 17 17 29 27
44 44 44 44 44 44 43 44 47 48 49 43 31 34 34 28 33 30 28 27 22 21 20 18 19 15 15 17 26 31 37 37 34 33 26 28 23 24 23 23 18 18 18 16 16 16 16
42 42 42 43 43 43 44 43 45 46 48 42 37 38 33 30 32 30 29 28 25 23 21 19 17 17 18 17 26 38 42 42 39 38 35 28 27 25 24 23 20 17 18 16 15 17 18
42 42 43 43 43 42 43 43 43 45 45 41 37 38 35 29 30 29 28 28 26 24 22 21 19 16 19 39 41 42 41 41 40 36 37 33 28 27 26 26 19 21 19 16 16 16 18
42 43 43 44 44 43 43 43 43 43 44 42 39 39 35 31 30 27 26 26 26 26 25 22 20 18 23 39 37 35 35 34 35 37 34 33 33 29 26 25 22 18 21 20 20 19 19
44 44 44 44 44 44 44 43 43 43 43 41 40 42 38 31 29 27 25 26 26 25 26 25 24 23 24 22 33 30 23 22 27 28 31 33 37 34 28 25 23 25 25 23 21 20 22
44 44 43 43 43 44 44 44 44 43 43 42 39 42 40 36 32 29 27 27 26 27 27 27 24 25 25 28 29 29 21 16 18 23 28 28 33 34 32 28 26 26 25 23 21 23 25
45 43 43 42 44 44 44 44 44 43 44 42 40 43 41 38 36 37 36 32 29 27 27 25 27 31 32 28 29 26 24 21 13 17 33 29 33 33 35 29 25 29 24 23 26 30 28
42 43 43 42 45 43 44 44 43 44 43 41 39 44 43 40 40 39 42 39 39 32 28 28 29 35 37 32 28 28 24 23 23 23 27 28 32 35 34 32 33 29 28 31 30 30 30
Wind_Speed
18 18 17 17 17 16 17 16 14 14 15 15 15 15 15 16 17 18 19 19 19 18 17 17 18 21 14 8 15 9 9 10 10 10 13 11 10 12 18 14 9 12 16 12 13 7 5
17 18 18 18 18 17 17 16 16 15 15 16 16 16 17 15 15 17 19 19 19 19 18 16 15 18 11 19 13 15 11 11 13 14 13 13 11 12 11 16 15 8 13 15 17 9 2
19 17 17 17 17 18 17 15 14 15 17 16 16 16 18 18 16 17 19 20 21 20 20 15 14 10 13 26 14 6 11 15 16 15 14 10 8 9 14 16 14 13 16 20 16 10 3
21 20 20 18 17 17 18 16 15 14 14 16 18 15 16 18 19 19 20 21 22 21 19 15 11 8 12 20 18 23 16 17 16 14 14 8 6 11 14 17 19 19 21 22 4 10 9
22 22 21 20 19 18 17 17 17 15 16 13 16 17 16 17 19 19 21 24 27 25 18 11 7 8 13 4 15 19 18 20 16 13 14 11 8 14 15 18 18 18 21 11 8 13 14
24 24 23 22 21 19 19 18 17 17 16 15 13 17 17 15 17 20 22 31 28 8 11 11 12 9 12 15 16 18 20 21 18 15 15 14 10 16 18 17 19 8 16 20 8 9 14
27 27 27 25 23 22 23 21 20 17 16 15 13 12 16 17 15 16 20 13 7 6 10 11 10 12 19 12 2 13 21 20 16 18 20 20 17 21 21 22 22 20 9 18 8 5 7
27 28 29 28 26 26 26 24 22 20 16 16 13 10 13 15 14 14 13 8 9 7 15 20 29 29 30 23 9 15 22 21 22 25 22 22 25 22 22 21 21 20 15 22 10 13 10
28 28 30 30 29 27 26 25 24 21 19 16 13 11 10 13 9 12 15 23 23 16 11 23 27 27 32 27 25 17 26 28 25 25 25 26 23 22 19 22 19 14 19 18 10 7 12
29 29 28 29 28 27 26 25 24 23 21 18 15 12 10 8 8 15 13 18 18 11 10 16 18 12 31 26 31 30 28 30 22 28 28 25 25 18 12 15 15 19 17 6 14 13 12
30 30 29 28 27 27 26 25 24 24 22 20 17 12 11 11 16 10 9 17 3 3 9 7 27 8 9 30 7 31 32 31 31 29 18 26 25 22 16 19 20 17 3 16 14 16 17
31 30 30 30 28 27 26 25 25 24 24 21 19 14 12 7 14 21 16 18 3 6 16 8 10 13 13 24 33 11 33 29 30 31 28 27 24 24 19 19 20 15 10 11 15 17 16
31 31 30 30 30 28 27 26 25 25 25 23 21 17 16 13 13 14 1 3 10 21 9 16 16 12 17 18 28 29 29 34 34 33 31 27 29 22 19 22 21 13 11 15 17 18 14
32 32 32 31 31 30 29 27 25 25 26 24 22 18 18 16 19 10 5 9 22 27 38 6 14 21 21 18 23 28 29 34 33 31 25 25 26 30 19 24 23 18 21 16 11 9 11
35 34 34 33 32 31 30 29 27 26 26 24 22 17 18 16 19 11 5 19 27 36 25 36 29 9 17 20 21 23 32 31 32 36 31 28 29 26 24 22 23 19 25 21 25 5 3
36 35 34 34 34 33 31 30 29 28 28 27 19 15 21 17 17 13 9 17 33 36 38 33 34 28 23 19 23 22 31 24 31 35 33 25 19 27 28 24 24 24 16 16 19 18 11
37 36 36 36 36 35 33 32 32 31 31 31 19 10 14 23 19 14 27 31 35 43 33 41 30 28 26 33 21 26 29 29 32 31 33 29 21 15 23 29 25 19 19 10 24 17 12
38 39 37 39 37 36 35 35 34 35 35 32 15 18 16 27 23 14 32 52 40 29 39 37 34 32 30 25 31 23 29 25 21 34 37 34 17 22 22 19 23 23 21 23 21 15 11
40 39 40 36 38 38 37 37 39 39 41 27 15 10 18 28 26 33 32 39 42 37 41 40 36 36 30 21 17 19 27 23 24 25 36 30 31 19 25 22 26 26 25 18 21 17 19
40 38 38 35 28 26 27 35 39 39 44 27 13 16 11 27 29 37 37 44 42 42 38 38 38 37 28 27 14 15 27 19 8 13 13 16 21 33 27 21 14 21 27 23 26 19 20
38 36 32 31 33 33 31 33 38 43 45 33 14 11 14 31 40 45 37 24 44 34 40 39 39 39 33 30 15 22 29 38 14 15 14 9 25 26 29 26 26 23 26 26 28 28 25
31 31 32 33 34 35 34 31 32 35 42 38 13 10 22 20 33 38 37 41 40 37 34 43 40 39 35 31 19 25 13 21 15 12 15 9 19 22 33 28 26 29 27 28 27 30 26
33 34 34 35 35 35 37 36 35 36 37 17 8 14 21 27 34 32 39 43 46 36 28 36 42 34 34 29 16 3 6 5 15 12 9 16 17 28 30 27 19 34 31 26 22 25 24
36 37 37 38 39 39 40 40 40 41 42 14 9 20 12 20 32 38 40 46 44 40 33 30 35 39 32 12 10 10 4 11 4 17 15 14 18 20 15 10 33 15 20 22 22 22 21
38 39 39 38 40 43 44 42 44 43 42 26 10 22 15 18 30 32 40 35 38 30 35 31 32 35 25 19 1 2 3 5 8 15 22 16 15 15 20 23 18 24 17 19 18 24 25
34 33 33 33 37 41 44 44 45 43 41 28 13 22 10 26 29 37 28 34 29 30 29 31 33 25 26 23 15 13 12 8 7 7 8 24 21 16 11 24 28 10 15 16 24 24 16
30 28 28 30 33 39 41 43 44 43 42 31 15 31 14 9 20 21 23 26 28 31 26 25 30 22 24 14 9 13 13 12 9 7 7 5 14 18 20 12 11 10 18 23 26 16 10
27 24 24 22 23 35 36 41 41 42 39 29 20 33 26 4 16 12 12 18 23 29 26 20 14 12 18 19 22 15 11 14 18 13 10 11 4 8 12 16 20 9 18 25 17 12 8
8 15 19 19 27 34 36 36 39 40 39 27 9 25 17 5 2 6 5 8 16 21 21 19 22 18 9 10 11 12 8 11 10 9 6 6 14 5 6 4 8 14 25 16 11 9 12
Wind_Direction
301 301 300 300 302 310 317 298 291 297 301 305 312 315 311 318 321 321 320 316 312 311 310 314 323 326 337 277 264 139 165 164 187 206 235 221 230 236 265 301 266 249 264 293 297 318 271
293 292 292 296 298 292 297 313 307 292 291 296 300 304 307 305 314 317 318 314 309 307 303 307 316 322 292 273 265 142 188 177 207 211 231 231 246 308 317 282 284 271 304 283 278 289 341
292 288 287 287 289 293 295 288 294 301 296 291 291 296 299 305 309 313 313 311 306 300 297 299 306 307 269 249 279 310 208 213 216 212 230 235 275 288 287 297 264 275 276 272 248 246 166
287 289 284 280 281 284 290 289 285 286 295 296 289 287 293 302 305 307 311 309 304 293 291 291 288 276 260 260 281 240 223 225 222 224 246 293 294 270 275 284 291 276 259 263 186 287 99
287 284 282 286 278 273 277 280 286 285 280 288 294 285 288 298 304 308 312 307 296 284 280 262 263 214 268 251 226 235 224 218 213 223 231 244 256 259 268 255 263 254 255 246 256 243 166
285 283 281 279 276 278 270 271 273 279 285 279 288 292 283 287 301 310 316 302 279 274 248 231 249 269 248 247 232 216 217 218 206 212 216 231 240 243 237 249 248 268 281 295 211 206 195
281 278 276 275 273 270 269 268 264 266 270 281 276 289 293 285 295 307 324 322 236 200 211 228 192 229 298 215 10 213 201 207 216 208 216 221 229 234 234 238 253 280 279 262 186 266 244
279 277 276 275 271 267 264 265 264 260 258 269 273 277 296 287 292 306 303 274 316 347 294 255 254 253 255 277 271 224 189 199 212 218 214 233 225 240 241 255 265 253 272 276 167 200 229
278 275 273 271 270 267 264 262 259 256 252 253 262 261 282 296 300 288 253 258 288 321 277 281 247 244 240 230 237 237 197 204 208 222 219 225 235 230 232 248 249 255 255 257 311 257 271
279 274 270 268 266 264 262 260 257 253 250 245 247 246 262 306 274 247 249 272 245 283 280 261 244 241 223 222 237 234 206 209 225 221 227 237 235 253 225 250 237 244 235 241 257 271 267
281 274 271 267 262 258 254 251 250 249 246 242 240 227 232 214 313 281 30 345 55 220 277 244 223 145 199 200 160 213 229 201 216 221 220 234 244 238 232 233 227 238 290 275 256 269 288
279 276 273 269 264 259 253 247 240 239 239 235 231 220 213 231 251 262 307 329 171 222 241 245 147 184 197 206 221 232 204 214 222 228 231 238 235 233 220 240 242 228 200 234 257 264 266
278 276 275 270 264 259 252 246 238 232 230 231 227 215 208 229 233 253 37 307 196 222 208 247 178 190 210 208 214 235 207 210 207 215 228 226 237 229 221 229 234 225 231 242 238 234 239
276 274 272 268 261 257 252 244 235 226 222 223 227 211 220 231 241 259 36 217 216 231 232 161 226 200 211 212 211 226 221 212 209 218 216 222 226 231 212 225 231 201 233 230 257 251 269
275 272 269 265 260 253 247 241 232 221 215 215 217 221 229 209 232 236 209 223 219 230 217 246 266 252 217 219 226 212 228 213 209 218 215 218 229 223 214 218 244 217 217 243 262 162 84
272 270 267 262 257 252 245 237 228 217 208 205 210 216 223 194 198 218 200 238 232 237 244 255 244 251 263 237 223 213 221 221 215 212 227 238 226 230 214 212 216 243 244 239 232 240 240
273 268 266 261 257 249 244 234 226 214 203 199 203 214 198 180 176 212 212 221 233 229 234 239 258 272 268 254 260 224 228 225 209 220 217 231 239 239 253 210 216 216 236 218 244 237 220
271 269 261 261 253 248 243 233 228 210 198 192 194 217 180 161 191 203 220 217 234 238 233 247 251 255 264 271 263 252 233 233 223 210 212 221 231 243 263 194 215 241 226 226 246 247 256
270 263 262 253 251 244 238 233 228 209 194 189 199 181 187 169 197 211 223 235 238 239 232 237 242 242 252 271 287 289 268 260 240 211 215 202 225 229 250 219 222 221 238 227 261 238 234
268 262 259 250 235 232 237 228 219 212 195 190 182 174 169 199 210 208 209 227 234 235 239 237 245 247 245 255 246 285 304 251 245 215 240 221 208 217 228 238 224 222 235 223 227 235 240
266 260 248 241 237 238 239 238 223 211 195 188 181 197 183 190 204 214 207 228 229 238 225 237 245 252 238 248 260 279 290 294 284 287 215 186 221 212 238 240 238 218 231 230 246 213 236
260 254 248 242 239 234 227 225 216 208 196 196 181 173 193 203 203 209 206 221 231 227 227 217 234 238 245 243 219 246 290 260 244 289 233 222 220 222 246 254 239 259 259 230 222 244 254
263 258 251 245 237 232 226 222 215 203 203 204 146 203 185 207 191 202 215 220 225 228 228 230 225 235 241 242 232 228 18 317 335 333 311 227 218 221 231 236 242 250 246 253 244 231 239
263 258 252 244 235 230 224 218 214 208 204 206 188 171 204 195 191 201 211 220 225 226 235 238 231 225 235 81 98 113 67 313 298 318 312 321 235 222 225 223 236 249 239 252 262 266 271
265 260 256 250 240 228 219 215 211 210 205 210 179 199 180 202 195 202 214 219 225 231 238 234 244 231 207 127 76 224 165 215 248 290 312 297 304 221 218 229 252 238 233 238 244 254 246
270 260 253 248 240 227 217 210 206 204 202 195 190 213 195 199 197 204 205 213 219 220 231 238 244 252 206 233 172 223 202 195 176 202 264 300 293 243 210 218 227 215 245 247 243 263 256
268 253 252 250 249 220 208 202 199 195 195 187 194 215 196 189 220 206 206 210 214 216 223 230 227 241 223 197 232 245 221 220 208 193 198 238 301 240 236 232 240 206 223 246 251 247 233
270 247 257 244 236 194 194 192 189 187 184 175 203 199 192 173 185 174 197 207 226 213 214 221 196 222 225 186 210 225 236 228 233 199 169 183 257 218 223 225 237 217 231 240 244 203 260
266 274 245 228 198 179 183 181 182 178 170 160 191 204 179 208 32 126 156 218 261 245 231 198 205 189 185 220 204 207 238 202 191 212 153 223 183 255 307 262 296 211 257 278 276 279 281